IRIDIUM 77 [+]

Last updated on Sept. 3, 2017, 12:18 a.m. UTC

1 25471U 98051E   17245.85038814  .01450639 -99301-6  97208-3 0  9994
2 25471  86.4083 348.6191 0346231 332.7272 145.7962 15.54226787999285

Satellite is not in orbit.